This is the latest recevied weather packets stored in our database for station/object IR4UCA-3. If no packets are shown the sender has not sent any weather packets the latest 1 day(s).
| Time | Temp. | Humidity | Pressure | Rain* | Wind** | Luminosity | Snow |
|---|---|---|---|---|---|---|---|
| 1777988611 | 20.56° C | 80% | 1011.2 hPa | 0 mm | 1.34 m/s, 7° | - | - |
| 1777988491 | 20.56° C | 80% | 1011.2 hPa | 0 mm | 1.34 m/s, 7° | - | - |
| 1777988368 | 20.56° C | 80% | 1011.2 hPa | 0 mm | 2.24 m/s, 7° | - | - |
| 1777988246 | 20.56° C | 80% | 1011.2 hPa | 0 mm | 0.45 m/s, 3° | - | - |
| 1777988126 | 20.56° C | 80% | 1011.3 hPa | 0 mm | 0.89 m/s, 1° | - | - |
| 1777988004 | 20.56° C | 81% | 1011.4 hPa | 0 mm | 0.45 m/s, 0° | - | - |
| 1777987886 | 20.56° C | 81% | 1011.4 hPa | 0 mm | 0.45 m/s, 1° | - | - |
| 1777987767 | 20° C | 81% | 1011.3 hPa | 0 mm | 0.45 m/s, 1° | - | - |
| 1777987643 | 20° C | 80% | 1011.4 hPa | 0 mm | 2.24 m/s, 1° | - | - |
| 1777987524 | 20.56° C | 81% | 1011.4 hPa | 0 mm | 1.79 m/s, 0° | - | - |
| 1777987402 | 20° C | 82% | 1011.3 hPa | 0 mm | 1.79 m/s, 18° | - | - |
| 1777987281 | 20° C | 82% | 1011.4 hPa | 0 mm | 2.24 m/s, 8° | - | - |
| 1777987163 | 20° C | 82% | 1011.4 hPa | 0 mm | 1.79 m/s, 27° | - | - |
| 1777987044 | 20° C | 82% | 1011.4 hPa | 0 mm | 1.34 m/s, 0° | - | - |
| 1777986925 | 20° C | 81% | 1011.5 hPa | 0 mm | 1.79 m/s, 354° | - | - |
| 1777986803 | 20° C | 83% | 1011.4 hPa | 0 mm | 2.68 m/s, 0° | - | - |
| 1777986679 | 20° C | 83% | 1011.5 hPa | 0 mm | 0.45 m/s, 20° | - | - |
| 1777986559 | 20° C | 83% | 1011.5 hPa | 0 mm | 1.79 m/s, 20° | - | - |
| 1777986438 | 19.44° C | 83% | 1011.5 hPa | 0 mm | 2.24 m/s, 0° | - | - |
| 1777986325 | 19.44° C | 84% | 1011.6 hPa | 0 mm | 2.24 m/s, 358° | - | - |
| 1777986207 | 19.44° C | 85% | 1011.5 hPa | 0 mm | 1.34 m/s, 7° | - | - |
| 1777986076 | 19.44° C | 85% | 1011.5 hPa | 0 mm | 0.45 m/s, 45° | - | - |
| 1777985954 | 19.44° C | 86% | 1011.6 hPa | 0 mm | 0.89 m/s, 48° | - | - |
| 1777985835 | 19.44° C | 86% | 1011.6 hPa | 0 mm | 0.45 m/s, 357° | - | - |
| 1777985720 | 18.89° C | 86% | 1011.6 hPa | 0 mm | 1.79 m/s, 357° | - | - |
* Rain latest hour (hover to see other rain measurements)
** Current wind speed in m/s (hover to see current wind gust speed)